switch

W tabeli znajdują się wszystkie najważniejsze informacje o kuponach; między innymi kwota rabatu, minimalna kota zakupu, liczba dostępnych kuponów. Dzięki kuponom możesz trafić na Aliexpress okazje niedostępne dla innych. Tabela jest posortowana według daty dodania kuponu do bazy, od najnowszych.

Aliexpress kupony– jak korzystać z tabeli?

W tabeli są następujące kolumny z kodami rabatowymi sklepów na Aliexpress:

Statystyki kuponów sprzedawców

Liczba kuponów w bazie: 41 573

Data dodania najnowszego kuponu: 2020-08-03 17:35:22

Ostatnia aktualizacja: 2020-08-03 20:11:28

Liczba dodanych dzisiaj: 157

Liczba zaktualizowanych dzisiaj: 1127

Liczba dodanych wczoraj: 421

Ładowanie kuponów...

Nazwa sklepu
+skopiuj
Kupon MKZ Procent Liczba Link i zdjęcie Link mobilny Dodano Zaktualizowano Najtańszy
+opłacalność
$2.00 $5.00 40% 98 Holder for Phone socket in car.... mobile. 17:35 20:05 ~$ 0.59 link

$1.00 $2.00 50% 200 Ordinary Cable USB C  Type C M.... mobile. 17:30 17:30 ~$ 0.59 link

$5.00 $5.01 100% 14 XIMISEN Men Slippers Casual Sh.... mobile. 17:05 20:06 ~$ 11.68 link

$5.00 $5.01 100% 3 XIMISEN Autumn High-top canvas.... mobile. 15:35 16:35 ~$ 11.68 link

$1.00 $1.01 99% 847 10MM Extra Thick 183cmX61cm Hi.... mobile. 11:28 20:07 ~$ 6.00 link

$5.00 $5.01 100% 2 XIMISEN classic Couple models .... mobile. 11:05 15:05 ~$ 11.68 link

$1.00 $1.01 99% 590 10MM Extra Thick 183cmX61cm Hi.... mobile. 10:32 13:03 ~$ 2.72 link

$2.00 $2.01 100% 95 Hand-held Laser Skin Depilator.... mobile. 10:05 20:03 ~$ 11.25 link

$1.00 $1.01 99% 100 Women Shoes Fashion Canvas Wom.... mobile. 09:54 09:54 ~$ 7.90 link

$2.00 $2.01 100% 500 women Summer Beach Flip flops .... mobile. 09:54 09:54 ~$ 8.98 link

$2.00 $2.01 100% 1000 Summer Men Loafers Metal Buckl.... mobile. 09:54 09:54 nie zeskanowano
$1.00 $1.01 99% 199 Handbag Women's Big Bag Fashio.... mobile. 09:54 09:54 ~$ 11.08 link

$2.00 $2.01 100% 178 Lucky 3D Printing Unicorn Flam.... mobile. 09:53 09:53 ~$ 10.99 link

$1.00 $1.01 99% 10000 Women's New Fashion Letter Bad.... mobile. 09:53 09:53 ~$ 12.82 link

$1.00 $1.01 99% 969 NEW Men Credit card holder car.... mobile. 09:53 09:53 ~$ 1.70 link

$2.00 $2.01 100% 100 RUISHISASBER Anti Theft USB Ch.... mobile. 09:52 09:52 ~$ 26.60 link

$1.00 $1.01 99% 40 Fashion Man Beach Mesh Sandals.... mobile. 09:52 09:52 ~$ 6.10 link

$3.00 $3.01 100% 29 Fashion Women Bags Famous Bran.... mobile. 09:50 09:50 ~$ 0.50 link

$3.00 $3.01 100% 49 Pay Extra Fee for Shipping Or .... mobile. 09:50 10:03 ~$ 0.10 link

$2.00 $2.01 100% 4986 Odetina Women Fashion Snakeski.... mobile. 09:50 10:33 ~$ 1.00 link

$1.00 $1.01 99% 9998 TR90 Lightweight Gold Green Br.... mobile. 09:50 09:50 ~$ 9.18 link

$1.00 $1.01 99% 4962 Women Pointed Toe Slippers Sli.... mobile. 09:49 10:02 ~$ 14.50 link

$1.00 $1.01 99% 6657 TOPHIGH  Python  A4 Big Capaci.... mobile. 09:49 10:02 ~$ 1.00 link

$1.00 $1.01 99% 496 Breathable Knitted Sneakers Wo.... mobile. 09:48 09:48 ~$ 7.04 link

$1.00 $1.01 99% 3994 Fashion Women Ankle Boots Chel.... mobile. 09:48 10:00 ~$ 15.68 link

$1.00 $1.01 99% 52 Gold Color Copper Mirco Pave B.... mobile. 09:46 09:46 ~$ 0.29 x 100 link

$1.00 $1.01 99% 9968 Winter Cotton Hooded Cardigan .... mobile. 09:44 09:44 ~$ 0.80 x 5 link

$30.00 $100.00 30% 1000 Bridal Veil Single Layer Lace .... mobile. 09:44 09:44 ~$ 0.07 link

$1.00 $1.01 99% 995 new fashion girl summer knitte.... mobile. 09:44 09:44 ~$ 11.44 link

$2.00 $2.01 100% 98 Globe hot sale  110V/220V PS-1.... mobile. 09:44 09:44 ~$ 0.50 link

$1.00 $1.01 99% 293 Autumn Woman Pants Side Stripe.... mobile. 09:44 09:44 ~$ 8.26 link

$1.00 $1.01 99% 998 2020 New Spring Women Jumpers .... mobile. 09:43 09:43 ~$ 6.36 link

$2.00 $2.01 100% 1000 2020 New13 Men Basketball Shoe.... mobile. 09:43 09:43 ~$ 31.24 link

$1.00 $1.01 99% 297 DDWW The Sleeping Woman Pictur.... mobile. 09:43 09:54 ~$ 3.16 link

$1.00 $1.01 99% 1927 Necklace Custom Jewelry Cursiv.... mobile. 09:43 09:43 ~$ 7.17 link

$1.00 $1.01 99% 99 Elastic knee pads, outdoor spo.... mobile. 09:43 09:43 ~$ 1.71 x 5 link

$5.00 $6.00 83% 1000 Sleeping Pad Ultralight Foam C.... mobile. 09:43 09:43 ~$ 10.00 link

$1.00 $1.01 99% 50 Camping Cookware Ultralight Ta.... mobile. 09:43 09:43 ~$ 20.26 link

$1.00 $1.01 99% 50 Fitness T-Shirt Sport Crop Top.... mobile. 09:43 09:43 ~$ 8.19 link

$3.00 $3.01 100% 98 LINNHUE Fishing Box For Baits .... mobile. 09:43 09:43 ~$ 15.58 link

$10.00 $10.01 100% 47 Urban Drift Yonos Powerful Adu.... mobile. 09:43 09:43 ~$ 255.64 link

$1.00 $1.01 99% 9945 Fashion Big Sunglasses for Men.... mobile. 09:43 09:56 ~$ 2.40 link

$1.00 $1.01 99% 9962 Jumbo Braiding Hair Ombre Synt.... mobile. 09:43 09:43 ~$ 1.06 link

$1.00 $1.01 99% 97 Suzakoo 1pcs Squash racket bal.... mobile. 09:43 09:43 ~$ 0.84 x 20 link

$1.00 $1.01 99% 9917 WMARK NG-201 7000 RPM Zero-cut.... mobile. 09:42 09:54 ~$ 5.53 link

$1.00 $1.01 99% 989 24 inch/100g Kanekalon Braidin.... mobile. 09:42 09:42 ~$ 0.43 link

$2.00 $2.01 100% 3000 Smart Watch 2020 Wearable Devi.... mobile. 09:42 09:54 ~$ 23.02 link

$1.00 $1.01 99% 50 Montessori Educational Toys fo.... mobile. 09:42 09:54 ~$ 2.63 link

$1.00 $1.01 99% 49997 Sexy One Piece Swim Suits Badp.... mobile. 09:42 20:05 ~$ 12.78 link

$2.00 $2.01 100% 999 Prettylove Single Speed Silico.... mobile. 09:42 09:42 ~$ 2.99 link

Wyświetlono kupony od 1 do 50 z łącznej liczby 41 573 kuponów w bazie.

1